Chillicothe, MO

3:28 PM CDT on September 23, 2017 (GMT -0500)
Chillicothe

Weather History for KCDJ - March, 2014

Change the Weather History Date:

Friday, March 7, 2014

  Actual Average (KIRK) Record (KIRK)
Temperature  
Mean Temperature 42 °F -  
Max Temperature 55 °F 48 °F 74 °F (1925)
Min Temperature 30 °F 26 °F -4 °F (1920)
Degree Days  
Heating Degree Days 22    
Moisture  
Dew Point 30 °F    
Average Humidity 65    
Maximum Humidity 79    
Minimum Humidity 47    
Precipitation  
Precipitation 0.00 in - - ()
Sea Level Pressure  
Sea Level Pressure 29.97 in    
Wind  
Wind Speed 6 mph (SSE)    
Max Wind Speed 13 mph    
Max Gust Speed 24 mph    
Averages and records for this station are not official NWS values.
T = Trace of Precipitation, MM = Missing Value Source: NWS Daily Summary

Daily Weather History Graph

Daily Weather History Graph

Search for Another Location

Airport or City:

Trip Planner

Search our weather history database for the weather conditions in past years. The results will help you decide how hot, cold, wet, or windy it might be!

Date:

Astronomy

Mar. 07, 2014 Rise Set
Actual Time 6:38 AM CST 6:12 PM CST
Civil Twilight 6:11 AM CST 6:39 PM CST
Nautical Twilight 5:40 AM CST 7:11 PM CST
Astronomical Twilight 5:08 AM CST 7:42 PM CST
Moon 10:32 AM CST (3/7) 12:17 AM CST (3/7)
Length of Visible Light 12h 28m
Length of Day
11h 34m
Waxing Crescent, 42% of the Moon is Illuminated
Mar 7
Waxing Crescent
Mar 8
First Quarter
Mar 16
Full
Mar 23
Last Quarter
Mar 30
New

Hourly Weather History & Observations

Time (CST) Temp. Windchill Dew Point Humidity Pressure Visibility Wind Dir Wind Speed Gust Speed Precip Events Conditions
12:52 AM 33.1 °F 27.7 °F 24.1 °F 70% 30.02 in - SSE 5.8 mph - N/A   Unknown
1:52 AM 35.1 °F 30.1 °F 24.1 °F 64% 30.00 in - South 5.8 mph - N/A   Unknown
2:52 AM 34.0 °F 29.8 °F 24.1 °F 67% 29.96 in - SSE 4.6 mph - N/A   Unknown
3:52 AM 33.1 °F 30.0 °F 23.0 °F 66% 29.96 in - SSE 3.5 mph - N/A   Unknown
4:52 AM 30.9 °F 27.5 °F 23.0 °F 72% 29.96 in - South 3.5 mph - N/A   Unknown
5:52 AM 30.9 °F 26.2 °F 24.1 °F 76% 29.95 in - SE 4.6 mph - N/A   Unknown
6:52 AM 30.9 °F 26.2 °F 23.0 °F 72% 29.96 in - SSE 4.6 mph - N/A   Unknown
7:52 AM 36.0 °F 32.1 °F 26.1 °F 67% 29.96 in - SSE 4.6 mph - N/A   Unknown
8:52 AM 41.0 °F 34.7 °F 28.0 °F 60% 29.95 in - South 10.4 mph - N/A   Unknown
9:52 AM 44.1 °F 38.6 °F 30.0 °F 58% 29.95 in - South 10.4 mph - N/A   Unknown
10:52 AM 46.0 °F 40.6 °F 33.1 °F 61% 29.94 in - SSW 11.5 mph - N/A   Unknown
11:52 AM 46.9 °F - 34.0 °F 61% 29.93 in - South 10.4 mph - N/A   Unknown
12:52 PM 51.1 °F - 36.0 °F 56% 29.91 in - South 10.4 mph - N/A   Unknown
1:52 PM 53.1 °F - 36.0 °F 52% 29.89 in - SSW 5.8 mph - N/A   Unknown
2:52 PM 55.9 °F - 37.0 °F 49% 29.89 in - Calm Calm - N/A   Unknown
3:52 PM 55.9 °F - 36.0 °F 47% 29.89 in - NE 5.8 mph - N/A   Unknown
4:52 PM 51.1 °F - 36.0 °F 56% 29.92 in - NNE 6.9 mph - N/A   Unknown
5:52 PM 48.9 °F - 36.0 °F 61% 29.94 in - NNE 8.1 mph - N/A   Unknown
6:52 PM 46.0 °F 42.5 °F 35.1 °F 66% 29.96 in - North 6.9 mph - N/A   Unknown
7:52 PM 41.0 °F 34.7 °F 34.0 °F 76% 30.00 in - North 10.4 mph 24.2 mph N/A   Unknown
8:52 PM 37.9 °F 30.0 °F 32.0 °F 79% 30.03 in - North 12.7 mph 21.9 mph N/A   Unknown
9:52 PM 36.0 °F 29.0 °F 30.0 °F 79% 30.06 in - North 9.2 mph - N/A   Unknown
10:52 PM 35.1 °F 28.6 °F 28.0 °F 76% 30.09 in - North 8.1 mph 17.3 mph N/A   Unknown
11:52 PM 33.1 °F 26.9 °F 26.1 °F 75% 30.10 in - North 6.9 mph 19.6 mph N/A   Unknown